Location: Boissi�res
(45.2500°N, 2.3667°E)
Time: 20:51:05
(UTC+00:00)

CSL-04 Rocket - Pass Details

Date: 03 March 2021
Orbit: 805 x 861 km, 98.9° (Epoch: 17 April)

Event Time Altitude Azimuth Distance (km) Brightness Sun altitude
Rises 18:21:35 0° 147° (SSE) 3,425 6.5 -8.0°
Reaches altitude 10° 18:24:01 10° 141° (SE) 2,491 5.8 -8.4°
Maximum altitude 18:29:19 49° 69° (ENE) 1,099 4.0 -9.4°
Drops below altitude 10° 18:34:36 10° 356° (N) 2,486 6.2 -10.3°
Sets 18:37:02 0° 351° (N) 3,418 7.0 -10.7°
